Vorticity
-7 2 1 4 1 3 13 12 7 -3 1 12 29 8 11 12 8 8 7 9 12 9 8 6 7 8 7 6 4 5 6 5 9 9 5 6 4 4 5 10 3 8 15 10
23 -4 1 -2 6 12 -2 2 3 -2 -0 9 7 -13 25 18 6 11 10 11 9 10 8 7 7 8 8 7 8 5 5 7 10 7 7 5 4 4 8 7 2 13 13 12
-5 10 2 -1 -4 -0 -3 3 3 8 6 8 -1 -3 1 -3 36 4 11 8 11 9 5 5 7 7 7 5 5 7 7 5 10 7 5 4 5 7 9 5 11 12 6 8
10 2 1 -5 2 -5 9 -3 10 8 2 3 3 -2 6 -3 54 -2 4 5 10 8 7 5 6 6 7 7 7 7 6 3 6 8 5 5 5 6 7 8 10 13 8 10
22 -2 -1 -5 4 -5 15 3 -13 1 16 16 11 13 8 -3 3 13 40 5 8 13 9 4 4 3 7 5 5 6 9 6 6 10 7 5 7 8 7 11 8 10 10 6
-9 19 7 -10 -12 2 1 -1 6 3 7 5 6 6 8 10 1 9 9 16 7 9 14 6 6 8 8 5 5 6 7 7 9 11 5 5 8 7 8 10 9 10 13 3
0 -3 27 4 -4 10 -9 -4 8 2 1 3 13 17 5 3 20 -6 27 34 1 14 13 10 8 7 10 7 6 9 9 7 7 8 5 8 5 8 9 12 6 9 12 4
4 15 -9 30 17 8 11 -1 4 -4 0 -3 3 -4 -7 11 9 60 45 22 5 4 14 12 6 11 9 11 6 7 8 6 7 7 5 6 5 8 11 10 9 7 7 5
21 26 11 15 14 16 3 0 15 -4 -2 10 5 -1 1 7 37 8 47 25 59 -6 13 10 11 10 8 8 9 7 8 9 6 5 6 6 6 9 9 10 12 8 6 6
5 1 10 12 17 13 18 14 4 0 -6 10 0 4 7 9 1 -1 9 12 31 6 9 10 8 7 8 8 7 4 5 6 8 7 6 7 6 7 10 12 9 8 7 7
2 3 2 13 16 29 12 3 3 3 8 9 2 -0 1 7 11 7 -4 -2 8 15 9 1 4 7 7 8 13 13 7 7 7 5 6 8 9 10 12 17 8 6 9 9
3 5 5 6 4 -0 5 14 4 11 -5 3 1 0 1 40 6 19 10 18 14 9 12 -2 36 11 11 14 14 13 11 8 7 9 8 6 7 8 10 19 12 6 7 11
17 2 0 2 3 3 13 4 -5 5 6 -2 5 7 2 25 13 20 -3 1 1 6 9 -3 9 3 8 6 8 6 9 9 10 12 7 7 7 7 7 8 15 11 11 11
20 18 -2 3 4 -1 -1 3 -8 1 6 -0 -1 3 1 4 -2 -11 -1 -18 6 9 -3 4 13 16 2 -0 3 3 8 -1 6 5 7 13 10 10 9 10 6 7 10 14
12 17 9 -6 -2 -1 13 0 11 -3 3 10 -1 2 7 1 11 15 15 19 23 10 -2 7 15 15 6 9 11 2 2 1 11 5 5 5 3 5 8 11 12 6 4 2
34 23 17 19 17 9 -2 13 12 8 -7 -4 10 13 13 31 -5 8 4 22 6 7 5 12 13 10 13 16 5 2 8 7 9 -0 1 2 3 12 11 7 6 14 18 13
37 16 4 1 10 11 10 9 13 8 5 9 -3 13 -6 11 11 4 9 23 17 14 11 6 7 8 9 10 11 13 -4 51 42 -22 13 1 14 -13 -11 16 5 16 1 4
16 12 10 -4 2 4 -8 -5 -0 12 19 11 8 2 8 11 10 14 12 14 11 10 12 11 9 10 11 8 7 8 9 8 11 11 -5 68 -1 3 -0 -3 10 11 35 7
8 19 18 1 -8 -0 -0 -2 1 1 -0 4 11 10 -1 8 12 20 16 12 9 10 10 10 9 9 8 11 12 10 9 9 8 6 9 10 10 9 7 0 13 15 6 8
16 7 12 28 17 -4 -2 2 -0 12 9 9 21 8 18 21 11 5 7 10 9 9 13 13 12 13 12 12 12 13 14 13 12 11 9 9 9 6 4 11 15 15 5 25
15 14 13 12 14 18 27 23 18 14 8 7 19 20 11 5 8 9 9 7 8 12 13 13 11 11 10 9 10 10 9 9 9 10 9 8 7 7 8 8 10 14 10 11
12 14 15 12 14 20 19 12 10 12 12 11 6 4 4 7 8 9 6 10 12 15 10 15 14 22 22 20 20 18 16 17 17 16 16 14 12 10 8 7 6 9 10 12
18 10 14 14 13 13 11 14 14 10 6 6 5 3 6 7 7 8 8 14 14 8 14 20 11 7 16 17 14 12 12 11 11 12 15 16 15 17 18 18 14 9 9 12
12 14 12 8 6 8 11 8 5 4 3 6 8 7 7 8 11 8 18 12 11 13 21 20 9 31 18 11 7 10 13 21 25 16 14 15 16 16 15 16 16 20 13 9
10 8 6 3 2 10 12 12 11 9 9 7 5 6 7 7 12 13 14 10 15 18 14 11 15 7 3 6 7 11 8 11 30 22 19 9 12 14 16 14 10 17 16 14
7 6 6 12 12 13 7 4 4 5 6 8 10 9 7 9 9 16 9 12 11 14 10 14 13 8 9 8 8 9 7 40 9 19 24 24 17 16 19 27 21 12 13 16
Height
5920 5924 5925 5927 5926 5926 5927 5923 5923 5923 5923 5921 5919 5925 5927 5926 5926 5927 5926 5924 5925 5923 5927 5929 5929 5930 5931 5932 5934 5937 5939 5939 5941 5942 5942 5942 5943 5943 5943 5943 5942 5943 5942 5942
5922 5926 5928 5929 5929 5927 5928 5929 5926 5925 5924 5923 5923 5925 5929 5928 5928 5928 5929 5929 5928 5926 5926 5928 5932 5931 5931 5933 5934 5936 5939 5941 5941 5941 5942 5942 5943 5944 5943 5942 5942 5943 5942 5942
5923 5927 5928 5928 5929 5927 5926 5929 5929 5928 5926 5926 5925 5925 5928 5927 5927 5930 5931 5931 5930 5930 5925 5927 5930 5931 5932 5932 5933 5935 5938 5940 5940 5941 5942 5943 5943 5944 5944 5942 5943 5942 5942 5942
5921 5923 5925 5927 5927 5927 5927 5928 5929 5929 5930 5929 5928 5929 5930 5928 5927 5927 5928 5928 5927 5929 5926 5925 5927 5929 5931 5933 5934 5935 5937 5938 5939 5940 5942 5943 5944 5944 5944 5943 5944 5944 5943 5944
5920 5923 5925 5928 5928 5927 5927 5929 5930 5929 5929 5929 5928 5928 5928 5928 5929 5928 5927 5926 5923 5925 5924 5922 5925 5927 5927 5931 5933 5934 5936 5938 5939 5940 5942 5943 5944 5945 5943 5944 5944 5944 5943 5944
5920 5923 5926 5927 5928 5928 5927 5928 5930 5930 5929 5927 5927 5927 5928 5929 5927 5925 5925 5922 5925 5925 5927 5921 5923 5928 5927 5928 5932 5934 5936 5938 5939 5940 5941 5942 5943 5943 5943 5944 5944 5944 5944 5944
5919 5924 5926 5927 5928 5927 5926 5927 5931 5932 5930 5928 5925 5924 5927 5926 5922 5918 5917 5921 5923 5922 5924 5923 5922 5926 5927 5929 5931 5934 5935 5935 5938 5939 5940 5941 5942 5942 5942 5943 5944 5944 5945 5945
5919 5922 5923 5925 5925 5926 5926 5929 5931 5933 5931 5931 5927 5927 5927 5924 5919 5910 5909 5911 5916 5920 5923 5921 5921 5924 5925 5928 5930 5931 5933 5935 5936 5938 5940 5940 5940 5940 5941 5942 5943 5944 5944 5944
5919 5921 5922 5922 5922 5925 5925 5928 5931 5932 5931 5931 5928 5928 5926 5923 5918 5912 5908 5910 5912 5916 5918 5918 5920 5921 5923 5926 5929 5929 5929 5931 5933 5934 5936 5938 5939 5939 5940 5940 5941 5942 5942 5942
5917 5919 5921 5921 5921 5922 5923 5926 5930 5930 5929 5929 5928 5929 5927 5923 5918 5917 5915 5915 5918 5917 5919 5920 5921 5922 5924 5926 5928 5928 5929 5932 5934 5935 5935 5937 5938 5938 5939 5939 5939 5941 5941 5941
5916 5917 5920 5920 5920 5920 5920 5922 5925 5927 5928 5927 5927 5930 5930 5927 5923 5916 5917 5919 5922 5922 5925 5927 5928 5927 5928 5929 5930 5932 5930 5930 5932 5932 5933 5934 5935 5935 5935 5936 5937 5938 5939 5939
5914 5916 5918 5921 5920 5920 5920 5922 5924 5926 5927 5926 5927 5931 5931 5929 5927 5925 5925 5923 5923 5927 5929 5929 5930 5931 5930 5930 5929 5929 5926 5925 5927 5927 5928 5930 5931 5933 5934 5933 5934 5933 5934 5935
5912 5914 5917 5919 5920 5919 5919 5921 5923 5924 5925 5926 5927 5929 5930 5930 5930 5927 5927 5928 5928 5929 5929 5928 5929 5930 5929 5928 5928 5928 5924 5923 5924 5924 5925 5925 5926 5928 5930 5932 5934 5934 5932 5932
5910 5912 5915 5916 5918 5919 5918 5919 5921 5923 5923 5923 5924 5925 5927 5930 5931 5931 5930 5927 5926 5925 5925 5923 5924 5923 5925 5925 5924 5923 5922 5922 5922 5923 5923 5924 5923 5924 5924 5927 5929 5930 5930 5931
5908 5910 5911 5913 5915 5917 5917 5917 5918 5920 5921 5921 5922 5922 5925 5927 5928 5926 5924 5922 5920 5918 5916 5916 5918 5917 5920 5922 5920 5919 5918 5918 5918 5917 5917 5920 5921 5920 5920 5922 5921 5920 5921 5921
5904 5906 5907 5909 5911 5912 5915 5915 5916 5917 5917 5918 5918 5919 5920 5922 5921 5919 5918 5917 5915 5911 5909 5909 5911 5912 5913 5915 5915 5915 5916 5914 5913 5913 5914 5914 5914 5915 5915 5914 5914 5916 5913 5912
5899 5900 5903 5906 5908 5909 5912 5913 5914 5915 5914 5915 5916 5917 5915 5914 5914 5913 5913 5910 5908 5906 5903 5902 5903 5905 5906 5907 5906 5907 5906 5905 5904 5908 5908 5902 5896 5897 5903 5907 5906 5906 5905 5903
5894 5897 5899 5903 5905 5906 5908 5909 5911 5912 5913 5914 5914 5913 5911 5910 5909 5908 5908 5906 5904 5902 5900 5898 5896 5897 5898 5898 5899 5898 5897 5894 5897 5897 5898 5896 5887 5885 5896 5901 5898 5896 5889 5888
5892 5893 5895 5898 5901 5903 5903 5906 5907 5908 5910 5911 5911 5911 5909 5906 5904 5903 5903 5902 5900 5899 5896 5894 5892 5889 5888 5890 5891 5890 5889 5888 5889 5893 5893 5891 5888 5886 5888 5889 5889 5888 5888 5886
5889 5890 5893 5895 5898 5899 5898 5901 5902 5903 5904 5906 5905 5905 5904 5903 5901 5898 5896 5895 5895 5893 5890 5887 5884 5882 5881 5882 5882 5883 5881 5880 5879 5880 5881 5880 5878 5877 5876 5879 5881 5881 5880 5877
5885 5887 5888 5890 5892 5895 5896 5895 5896 5898 5902 5899 5898 5898 5898 5897 5897 5895 5894 5891 5889 5886 5883 5881 5877 5873 5872 5872 5873 5873 5873 5872 5871 5870 5870 5870 5869 5869 5869 5870 5873 5874 5873 5873
5882 5884 5885 5887 5889 5892 5893 5892 5892 5893 5893 5893 5893 5894 5893 5893 5891 5889 5888 5887 5884 5881 5878 5877 5874 5870 5867 5866 5865 5864 5862 5862 5860 5859 5858 5858 5860 5861 5860 5860 5860 5860 5861 5862
5880 5882 5883 5885 5887 5888 5888 5888 5888 5889 5889 5889 5888 5888 5887 5886 5885 5884 5883 5882 5879 5876 5874 5872 5871 5870 5866 5863 5860 5860 5857 5854 5851 5850 5851 5851 5850 5849 5848 5847 5847 5848 5850 5852
5877 5878 5880 5881 5883 5884 5885 5885 5885 5885 5885 5885 5885 5884 5884 5883 5882 5880 5878 5876 5874 5871 5869 5868 5866 5865 5863 5861 5859 5855 5853 5850 5847 5846 5844 5842 5841 5840 5837 5836 5837 5837 5838 5840
5875 5875 5877 5879 5880 5881 5882 5882 5882 5882 5881 5880 5879 5879 5879 5879 5878 5877 5875 5873 5871 5869 5866 5865 5863 5861 5860 5858 5855 5852 5850 5847 5844 5841 5838 5836 5836 5834 5831 5830 5829 5830 5830 5832
5870 5872 5874 5875 5875 5877 5878 5878 5878 5878 5878 5877 5876 5875 5874 5873 5872 5870 5870 5869 5868 5866 5864 5863 5861 5859 5857 5854 5852 5849 5846 5841 5839 5835 5833 5832 5829 5827 5826 5824 5823 5823 5824 5826